Location: Spring Creek
(38.2870°N, 100.2160°W)
Time: 09:16:15
(UTC+00:00)

Landsat 7 - Pass Details

Date: 08 May 2021
Orbit: 701 x 703 km, 98.0° (Epoch: 22 June)

Event Time Altitude Azimuth Distance (km) Brightness Sun altitude
Exits shadow 03:23:41 34° 149° (SSE) 1,140 4.4 -18.4°
Maximum altitude 03:25:40 70° 76° (ENE) 750 3.8 -18.7°
Drops below altitude 10° 03:30:25 10° 353° (N) 2,178 7.0 -19.4°
Sets 03:32:41 0° 351° (N) 3,100 8.0 -19.7°
